contact:dominique.lefevre@mio.osupytheas.fr, maurice.libes@osupytheas.fr, didier.mallarino@osupytheas.fr
Project:EMSO http://www.emso-fr.org/EMSO-France
Depth: 2436.0 m
Title:EMSO Ligure Ouest : Data MII capteur CSTAR
DateTime,Latitude,Longitude,Instrument_Serial,Reference_Counts,Signal_Counts,Corrected_Signal_raw_counts,Calculated_Beam_c_inverse_meters,Internal_thermistor_counts
DateTime,Latitude,Longitude,Instrument_Serial,Reference_Counts,Signal_Counts,Corrected_Signal_raw_counts,Calculated_Beam_c_inverse_meters,Internal_thermistor_counts
2022-05-30T08:55:07,42.805,6.029,CST-1368DR,4748,5265,11823,01.113,551
2022-05-30T08:58:08,42.805,6.029,CST-1368DR,4747,5266,11828,01.111,551
2022-05-30T09:01:10,42.805,6.029,CST-1368DR,4747,5266,11827,01.112,551
2022-05-30T09:04:11,42.805,6.029,CST-1368DR,4747,5263,11821,01.114,551
2022-05-30T09:07:13,42.805,6.029,CST-1368DR,4747,5273,11842,01.107,551
2022-05-30T09:10:14,42.805,6.029,CST-1368DR,4746,5263,11824,01.113,551
2022-05-30T09:13:16,42.805,6.029,CST-1368DR,4746,5263,11823,01.113,551
2022-05-30T09:16:18,42.805,6.029,CST-1368DR,4746,5274,11848,01.105,551
2022-05-30T09:19:19,42.805,6.029,CST-1368DR,4746,5270,11839,01.108,551
2022-05-30T09:22:21,42.805,6.029,CST-1368DR,4746,5267,11833,01.110,551
2022-05-30T09:25:22,42.805,6.029,CST-1368DR,4746,5272,11844,01.106,551
2022-05-30T09:28:24,42.805,6.029,CST-1368DR,4745,5274,11849,01.104,551
2022-05-30T09:31:25,42.805,6.029,CST-1368DR,4745,5272,11845,01.106,551
2022-05-30T09:34:27,42.805,6.029,CST-1368DR,4745,5274,11849,01.104,551
2022-05-30T09:37:29,42.805,6.029,CST-1368DR,4745,5273,11847,01.105,551
2022-05-30T09:40:30,42.805,6.029,CST-1368DR,4745,5267,11835,01.109,551
2022-05-30T09:43:32,42.805,6.029,CST-1368DR,4745,5267,11834,01.109,551
2022-05-30T09:46:33,42.805,6.029,CST-1368DR,4745,5263,11825,01.112,551
2022-05-30T09:49:35,42.805,6.029,CST-1368DR,4744,5264,11830,01.111,551
2022-05-30T09:52:37,42.805,6.029,CST-1368DR,4744,5267,11837,01.108,551
2022-05-30T09:55:38,42.805,6.029,CST-1368DR,4744,5266,11834,01.109,551
2022-05-30T09:58:40,42.805,6.029,CST-1368DR,4744,5262,11827,01.112,551
2022-05-30T10:01:41,42.805,6.029,CST-1368DR,4744,5266,11834,01.109,551
2022-05-30T10:04:43,42.805,6.029,CST-1368DR,4744,5265,11833,01.110,551
2022-05-30T10:07:44,42.805,6.029,CST-1368DR,4744,5266,11834,01.109,551
2022-05-30T10:10:46,42.805,6.029,CST-1368DR,4744,5272,11848,01.105,551
2022-05-30T10:13:48,42.805,6.029,CST-1368DR,4744,5263,11828,01.111,551
2022-05-30T10:16:49,42.805,6.029,CST-1368DR,4743,5267,11840,01.107,551
2022-05-30T10:19:51,42.805,6.029,CST-1368DR,4744,5270,11844,01.106,551
2022-05-30T10:22:52,42.805,6.029,CST-1368DR,4743,5271,11848,01.105,551
2022-05-30T10:25:54,42.805,6.029,CST-1368DR,4743,5263,11830,01.111,551
2022-05-30T10:28:55,42.805,6.029,CST-1368DR,4743,5263,11830,01.111,551
2022-05-30T10:31:57,42.805,6.029,CST-1368DR,4743,5263,11831,01.110,551
2022-05-30T10:34:59,42.805,6.029,CST-1368DR,4743,5269,11844,01.106,551
2022-05-30T10:38:00,42.805,6.029,CST-1368DR,4743,5272,11850,01.104,551
2022-05-30T10:41:02,42.805,6.029,CST-1368DR,4743,5272,11850,01.104,551
2022-05-30T10:44:03,42.805,6.029,CST-1368DR,4743,5257,11818,01.115,551
2022-05-30T10:47:05,42.805,6.029,CST-1368DR,4743,5266,11837,01.108,551
2022-05-30T10:50:07,42.805,6.029,CST-1368DR,4743,5264,11832,01.110,551
2022-05-30T10:53:08,42.805,6.029,CST-1368DR,4743,5268,11842,01.107,551
2022-05-30T10:56:10,42.805,6.029,CST-1368DR,4742,5271,11852,01.103,551
2022-05-30T10:59:11,42.805,6.029,CST-1368DR,4742,5261,11828,01.111,551
2022-05-30T11:02:13,42.805,6.029,CST-1368DR,4742,5270,11848,01.105,551
2022-05-30T11:05:14,42.805,6.029,CST-1368DR,4742,5264,11835,01.109,551
2022-05-30T11:08:16,42.805,6.029,CST-1368DR,4742,5258,11822,01.113,551
2022-05-30T11:11:18,42.805,6.029,CST-1368DR,4742,5267,11843,01.106,551
2022-05-30T11:14:19,42.805,6.029,CST-1368DR,4742,5266,11840,01.107,551
2022-05-30T11:17:21,42.805,6.029,CST-1368DR,4742,5271,11850,01.104,551
2022-05-30T11:20:22,42.805,6.029,CST-1368DR,4742,5270,11848,01.105,551
2022-05-30T11:23:24,42.805,6.029,CST-1368DR,4742,5269,11845,01.106,551
2022-05-30T11:26:25,42.805,6.029,CST-1368DR,4742,5269,11845,01.106,551
2022-05-30T11:29:27,42.805,6.029,CST-1368DR,4742,5260,11826,01.112,551
2022-05-30T11:32:29,42.805,6.029,CST-1368DR,4742,5271,11850,01.104,551
2022-05-30T11:35:30,42.805,6.029,CST-1368DR,4742,5266,11839,01.108,551
2022-05-30T11:38:32,42.805,6.029,CST-1368DR,4742,5273,11856,01.102,551
2022-05-30T11:41:33,42.805,6.029,CST-1368DR,4741,5267,11844,01.106,551
2022-05-30T11:44:35,42.805,6.029,CST-1368DR,4741,5259,11826,01.112,551
2022-05-30T11:47:37,42.805,6.029,CST-1368DR,4741,5269,11849,01.104,551
2022-05-30T11:50:38,42.805,6.029,CST-1368DR,4741,5258,11825,01.112,551
2022-05-30T11:53:40,42.805,6.029,CST-1368DR,4741,5260,11829,01.111,551
2022-05-30T11:56:41,42.805,6.029,CST-1368DR,4741,5264,11838,01.108,551
2022-05-30T11:59:43,42.805,6.029,CST-1368DR,4741,5266,11842,01.107,551
2022-05-30T12:02:44,42.805,6.029,CST-1368DR,4741,5262,11832,01.110,551
2022-05-30T12:05:46,42.805,6.029,CST-1368DR,4741,5264,11836,01.109,551
2022-05-30T12:08:48,42.805,6.029,CST-1368DR,4741,5266,11842,01.107,551
2022-05-30T12:11:49,42.805,6.029,CST-1368DR,4741,5265,11839,01.108,551
2022-05-30T12:14:51,42.805,6.029,CST-1368DR,4741,5257,11821,01.114,551
2022-05-30T12:17:52,42.805,6.029,CST-1368DR,4741,5262,11834,01.109,551
2022-05-30T12:20:54,42.805,6.029,CST-1368DR,4741,5259,11827,01.112,551
2022-05-30T12:23:55,42.805,6.029,CST-1368DR,4741,5288,11891,01.090,551
2022-05-30T12:26:57,42.805,6.029,CST-1368DR,4741,5262,11833,01.110,551
2022-05-30T12:29:59,42.805,6.029,CST-1368DR,4740,5257,11823,01.113,551
2022-05-30T12:33:00,42.805,6.029,CST-1368DR,4740,5258,11827,01.112,551
2022-05-30T12:36:02,42.805,6.029,CST-1368DR,4740,5259,11828,01.111,551
2022-05-30T12:39:03,42.805,6.029,CST-1368DR,4740,5259,11829,01.111,551
2022-05-30T12:42:05,42.805,6.029,CST-1368DR,4740,5258,11827,01.112,551
2022-05-30T12:45:07,42.805,6.029,CST-1368DR,4740,5261,11833,01.110,551
2022-05-30T12:48:08,42.805,6.029,CST-1368DR,4740,5259,11829,01.111,551
2022-05-30T12:51:10,42.805,6.029,CST-1368DR,4740,5273,11860,01.100,551
2022-05-30T12:54:11,42.805,6.029,CST-1368DR,4740,5291,11900,01.087,551
2022-05-30T12:57:13,42.805,6.029,CST-1368DR,4740,5268,11850,01.104,551
2022-05-30T13:00:14,42.805,6.029,CST-1368DR,4740,5261,11832,01.110,551
2022-05-30T13:03:16,42.805,6.029,CST-1368DR,4740,5295,11910,01.084,551
2022-05-30T13:06:18,42.805,6.029,CST-1368DR,4740,5269,11851,01.104,551
2022-05-30T13:09:19,42.805,6.029,CST-1368DR,4740,5273,11860,01.100,551
2022-05-30T13:12:21,42.805,6.029,CST-1368DR,4740,5266,11845,01.106,551
2022-05-30T13:15:22,42.805,6.029,CST-1368DR,4740,5261,11832,01.110,551
2022-05-30T13:18:24,42.805,6.029,CST-1368DR,4740,5261,11833,01.110,551
2022-05-30T13:21:26,42.805,6.029,CST-1368DR,4740,5267,11846,01.105,551
2022-05-30T13:24:27,42.805,6.029,CST-1368DR,4740,5267,11846,01.105,551
2022-05-30T13:27:29,42.805,6.029,CST-1368DR,4739,5260,11833,01.110,551
2022-05-30T13:30:30,42.805,6.029,CST-1368DR,4739,5263,11840,01.107,551
2022-05-30T13:33:32,42.805,6.029,CST-1368DR,4740,5295,11910,01.084,551
2022-05-30T13:36:33,42.805,6.029,CST-1368DR,4739,5269,11854,01.103,551
2022-05-30T13:39:35,42.805,6.029,CST-1368DR,4739,5264,11842,01.107,551
2022-05-30T13:42:37,42.805,6.029,CST-1368DR,4739,5269,11853,01.103,551
2022-05-30T13:45:38,42.805,6.029,CST-1368DR,4739,5268,11851,01.104,551
2022-05-30T13:48:40,42.805,6.029,CST-1368DR,4739,5266,11846,01.105,551
2022-05-30T13:51:41,42.805,6.029,CST-1368DR,4739,5270,11856,01.102,551
2022-05-30T13:54:43,42.805,6.029,CST-1368DR,4739,5272,11859,01.101,551
2022-05-30T13:57:44,42.805,6.029,CST-1368DR,4739,5271,11858,01.101,551
2022-05-30T14:00:46,42.805,6.029,CST-1368DR,4739,5270,11856,01.102,551
2022-05-30T14:03:48,42.805,6.029,CST-1368DR,4739,5270,11855,01.102,551
2022-05-30T14:06:49,42.805,6.029,CST-1368DR,4739,5269,11853,01.103,551
2022-05-30T14:09:51,42.805,6.029,CST-1368DR,4739,5267,11850,01.104,551
2022-05-30T14:12:52,42.805,6.029,CST-1368DR,4739,5267,11850,01.104,551
2022-05-30T14:15:54,42.805,6.029,CST-1368DR,4739,5266,11847,01.105,551
2022-05-30T14:18:56,42.805,6.029,CST-1368DR,4739,5267,11849,01.104,551
2022-05-30T14:21:57,42.805,6.029,CST-1368DR,4739,5262,11838,01.108,551
2022-05-30T14:24:59,42.805,6.029,CST-1368DR,4739,5261,11836,01.109,551
2022-05-30T14:28:00,42.805,6.029,CST-1368DR,4739,5267,11850,01.104,551
2022-05-30T14:31:02,42.805,6.029,CST-1368DR,4739,5261,11835,01.109,551
2022-05-30T14:34:03,42.805,6.029,CST-1368DR,4738,5257,11828,01.111,550
2022-05-30T14:37:05,42.805,6.029,CST-1368DR,4738,5257,11830,01.111,551
2022-05-30T14:40:07,42.805,6.029,CST-1368DR,4738,5255,11824,01.113,551
2022-05-30T14:43:08,42.805,6.029,CST-1368DR,4738,5258,11831,01.110,551
2022-05-30T14:46:10,42.805,6.029,CST-1368DR,4738,5259,11832,01.110,551
2022-05-30T14:49:11,42.805,6.029,CST-1368DR,4738,5258,11831,01.110,551
2022-05-30T14:52:13,42.805,6.029,CST-1368DR,4738,5260,11835,01.109,551
2022-05-30T14:55:14,42.805,6.029,CST-1368DR,4738,5258,11831,01.110,551
2022-05-30T14:58:16,42.805,6.029,CST-1368DR,4738,5259,11832,01.110,551
2022-05-30T15:01:18,42.805,6.029,CST-1368DR,4738,5255,11825,01.112,551
2022-05-30T15:04:19,42.805,6.029,CST-1368DR,4738,5256,11827,01.112,551
2022-05-30T15:07:21,42.805,6.029,CST-1368DR,4738,5257,11828,01.111,551
2022-05-30T15:10:22,42.805,6.029,CST-1368DR,4738,5258,11831,01.110,551
2022-05-30T15:13:24,42.805,6.029,CST-1368DR,4738,5258,11832,01.110,551
2022-05-30T15:16:26,42.805,6.029,CST-1368DR,4738,5258,11831,01.110,551
2022-05-30T15:19:27,42.805,6.029,CST-1368DR,4738,5258,11832,01.110,551
2022-05-30T15:22:29,42.805,6.029,CST-1368DR,4738,5256,11827,01.112,551
2022-05-30T15:25:30,42.805,6.029,CST-1368DR,4738,5256,11827,01.112,551
2022-05-30T15:28:32,42.805,6.029,CST-1368DR,4738,5257,11828,01.111,551
2022-05-30T15:31:33,42.805,6.029,CST-1368DR,4738,5255,11823,01.113,551
2022-05-30T15:34:35,42.805,6.029,CST-1368DR,4738,5257,11828,01.111,551
2022-05-30T15:37:37,42.805,6.029,CST-1368DR,4738,5257,11828,01.111,551
2022-05-30T15:40:38,42.805,6.029,CST-1368DR,4738,5258,11831,01.110,551
2022-05-30T15:43:40,42.805,6.029,CST-1368DR,4738,5259,11833,01.110,551
2022-05-30T15:46:41,42.805,6.029,CST-1368DR,4737,5255,11827,01.112,551
2022-05-30T15:49:43,42.805,6.029,CST-1368DR,4737,5253,11821,01.114,551
2022-05-30T15:52:45,42.805,6.029,CST-1368DR,4737,5255,11826,01.112,551
2022-05-30T15:55:46,42.805,6.029,CST-1368DR,4737,5253,11823,01.113,551
2022-05-30T15:58:48,42.805,6.029,CST-1368DR,4737,5251,11818,01.115,551
2022-05-30T16:01:49,42.805,6.029,CST-1368DR,4737,5254,11825,01.112,551
2022-05-30T16:04:51,42.805,6.029,CST-1368DR,4737,5250,11815,01.116,551
2022-05-30T16:07:52,42.805,6.029,CST-1368DR,4737,5251,11817,01.115,551
2022-05-30T16:10:54,42.805,6.029,CST-1368DR,4737,5260,11837,01.108,551
2022-05-30T16:13:56,42.805,6.029,CST-1368DR,4737,5254,11824,01.113,551
2022-05-30T16:16:57,42.805,6.029,CST-1368DR,4737,5251,11818,01.115,551
2022-05-30T16:19:59,42.805,6.029,CST-1368DR,4737,5250,11815,01.116,551
2022-05-30T16:23:00,42.805,6.029,CST-1368DR,4737,5249,11812,01.117,551
2022-05-30T16:26:02,42.805,6.029,CST-1368DR,4737,5253,11822,01.113,551
2022-05-30T16:29:03,42.805,6.029,CST-1368DR,4737,5252,11821,01.114,551
2022-05-30T16:32:05,42.805,6.029,CST-1368DR,4737,5248,11811,01.117,551
2022-05-30T16:35:07,42.805,6.029,CST-1368DR,4737,5250,11816,01.115,551
2022-05-30T16:38:08,42.805,6.029,CST-1368DR,4737,5250,11815,01.116,551
2022-05-30T16:41:10,42.805,6.029,CST-1368DR,4737,5247,11809,01.118,551
2022-05-30T16:44:11,42.805,6.029,CST-1368DR,4737,5248,11811,01.117,551
2022-05-30T16:47:13,42.805,6.029,CST-1368DR,4737,5247,11808,01.118,551
2022-05-30T16:50:15,42.805,6.029,CST-1368DR,4737,5251,11818,01.115,551
2022-05-30T16:53:16,42.805,6.029,CST-1368DR,4737,5252,11820,01.114,551
2022-05-30T16:56:18,42.805,6.029,CST-1368DR,4736,5251,11821,01.114,551
2022-05-30T16:59:19,42.805,6.029,CST-1368DR,4736,5250,11818,01.115,551
2022-05-30T17:02:21,42.805,6.029,CST-1368DR,4736,5251,11820,01.114,551
2022-05-30T17:05:22,42.805,6.029,CST-1368DR,4736,5252,11823,01.113,551
2022-05-30T17:08:24,42.805,6.029,CST-1368DR,4736,5250,11817,01.115,551
2022-05-30T17:11:26,42.805,6.029,CST-1368DR,4736,5252,11821,01.114,551
2022-05-30T17:14:27,42.805,6.029,CST-1368DR,4736,5252,11821,01.114,551
2022-05-30T17:17:29,42.805,6.029,CST-1368DR,4736,5254,11826,01.112,551
2022-05-30T17:20:30,42.805,6.029,CST-1368DR,4736,5250,11819,01.114,551
2022-05-30T17:23:32,42.805,6.029,CST-1368DR,4736,5254,11826,01.112,551
2022-05-30T17:26:33,42.805,6.029,CST-1368DR,4736,5256,11831,01.110,551
2022-05-30T17:29:35,42.805,6.029,CST-1368DR,4736,5252,11823,01.113,551
2022-05-30T17:32:37,42.805,6.029,CST-1368DR,4736,5252,11823,01.113,551
2022-05-30T17:35:38,42.805,6.029,CST-1368DR,4736,5250,11817,01.115,551
2022-05-30T17:38:40,42.805,6.029,CST-1368DR,4736,5255,11828,01.111,551
2022-05-30T17:41:41,42.805,6.029,CST-1368DR,4736,5248,11813,01.116,551
2022-05-30T17:44:43,42.805,6.029,CST-1368DR,4736,5250,11817,01.115,551
2022-05-30T17:47:45,42.805,6.029,CST-1368DR,4736,5251,11820,01.114,551
2022-05-30T17:50:46,42.805,6.029,CST-1368DR,4736,5249,11816,01.115,551
2022-05-30T17:53:48,42.805,6.029,CST-1368DR,4736,5256,11832,01.110,551
2022-05-30T17:56:49,42.805,6.029,CST-1368DR,4736,5248,11814,01.116,551
2022-05-30T17:59:51,42.805,6.029,CST-1368DR,4736,5251,11821,01.114,551
2022-05-30T18:02:52,42.805,6.029,CST-1368DR,4736,5256,11831,01.110,551
2022-05-30T18:05:54,42.805,6.029,CST-1368DR,4736,5250,11817,01.115,551
2022-05-30T18:08:56,42.805,6.029,CST-1368DR,4736,5250,11817,01.115,551
2022-05-30T18:11:57,42.805,6.029,CST-1368DR,4736,5251,11820,01.114,551
2022-05-30T18:14:59,42.805,6.029,CST-1368DR,4736,5251,11821,01.114,551
2022-05-30T18:18:00,42.805,6.029,CST-1368DR,4736,5250,11819,01.114,551
2022-05-30T18:21:02,42.805,6.029,CST-1368DR,4736,5253,11824,01.113,551
2022-05-30T18:24:04,42.805,6.029,CST-1368DR,4736,5253,11825,01.112,551
2022-05-30T18:27:05,42.805,6.029,CST-1368DR,4736,5252,11822,01.113,551
2022-05-30T18:30:07,42.805,6.029,CST-1368DR,4736,5257,11833,01.110,551
2022-05-30T18:33:08,42.805,6.029,CST-1368DR,4736,5257,11834,01.109,551
2022-05-30T18:36:10,42.805,6.029,CST-1368DR,4736,5256,11832,01.110,551
2022-05-30T18:39:11,42.805,6.029,CST-1368DR,4735,5220,11753,01.137,551
2022-05-30T18:42:13,42.805,6.029,CST-1368DR,4736,5251,11819,01.114,551
2022-05-30T18:45:15,42.805,6.029,CST-1368DR,4735,5254,11828,01.111,551
2022-05-30T18:48:16,42.805,6.029,CST-1368DR,4735,5256,11834,01.109,551
2022-05-30T18:51:18,42.805,6.029,CST-1368DR,4735,5255,11832,01.110,551
2022-05-30T18:54:19,42.805,6.029,CST-1368DR,4735,5252,11825,01.112,551
2022-05-30T18:57:21,42.805,6.029,CST-1368DR,4735,5263,11849,01.104,551
2022-05-30T19:00:23,42.805,6.029,CST-1368DR,4735,5267,11858,01.101,551
2022-05-30T19:03:24,42.805,6.029,CST-1368DR,4735,5259,11840,01.107,551
2022-05-30T19:06:26,42.805,6.029,CST-1368DR,4735,5261,11846,01.105,551
2022-05-30T19:09:27,42.805,6.029,CST-1368DR,4735,5261,11846,01.105,551
2022-05-30T19:12:29,42.805,6.029,CST-1368DR,4735,5260,11843,01.106,551
2022-05-30T19:15:30,42.805,6.029,CST-1368DR,4735,5262,11847,01.105,551
2022-05-30T19:18:32,42.805,6.029,CST-1368DR,4735,5262,11846,01.105,551
2022-05-30T19:21:34,42.805,6.029,CST-1368DR,4735,5265,11853,01.103,551
2022-05-30T19:24:35,42.805,6.029,CST-1368DR,4735,5257,11837,01.108,551
2022-05-30T19:27:37,42.805,6.029,CST-1368DR,4735,5258,11839,01.108,551
2022-05-30T19:30:38,42.805,6.029,CST-1368DR,4735,5257,11835,01.109,550
2022-05-30T19:33:40,42.805,6.029,CST-1368DR,4735,5258,11838,01.108,551
2022-05-30T19:36:41,42.805,6.029,CST-1368DR,4735,5260,11842,01.107,551
2022-05-30T19:39:43,42.805,6.029,CST-1368DR,4735,5255,11831,01.110,551
2022-05-30T19:42:45,42.805,6.029,CST-1368DR,4735,5262,11848,01.105,551
2022-05-30T19:45:46,42.805,6.029,CST-1368DR,4735,5252,11824,01.113,551
2022-05-30T19:48:48,42.805,6.029,CST-1368DR,4735,5262,11846,01.105,551
2022-05-30T19:51:49,42.805,6.029,CST-1368DR,4735,5262,11846,01.105,551
2022-05-30T19:54:51,42.805,6.029,CST-1368DR,4735,5267,11859,01.101,551
2022-05-30T19:57:53,42.805,6.029,CST-1368DR,4735,5266,11856,01.102,551
2022-05-30T20:00:54,42.805,6.029,CST-1368DR,4734,5226,11769,01.131,551
2022-05-30T20:03:56,42.805,6.029,CST-1368DR,4735,5268,11860,01.100,551
2022-05-30T20:06:57,42.805,6.029,CST-1368DR,4735,5262,11846,01.105,551
2022-05-30T20:09:59,42.805,6.029,CST-1368DR,4735,5270,11864,01.099,551
2022-05-30T20:13:00,42.805,6.029,CST-1368DR,4735,5272,11869,01.097,551
2022-05-30T20:16:02,42.805,6.029,CST-1368DR,4735,5270,11865,01.099,551
2022-05-30T20:19:04,42.805,6.029,CST-1368DR,4735,5266,11856,01.102,551
2022-05-30T20:22:05,42.805,6.029,CST-1368DR,4735,5267,11859,01.101,551
2022-05-30T20:25:07,42.805,6.029,CST-1368DR,4735,5267,11859,01.101,551
2022-05-30T20:28:08,42.805,6.029,CST-1368DR,4735,5263,11849,01.104,551
2022-05-30T20:31:10,42.805,6.029,CST-1368DR,4735,5266,11857,01.102,551
2022-05-30T20:34:12,42.805,6.029,CST-1368DR,4735,5267,11859,01.101,551
2022-05-30T20:37:13,42.805,6.029,CST-1368DR,4734,5265,11857,01.102,551
2022-05-30T20:40:15,42.805,6.029,CST-1368DR,4734,5262,11850,01.104,551
2022-05-30T20:43:16,42.805,6.029,CST-1368DR,4735,5266,11855,01.102,551
2022-05-30T20:46:18,42.805,6.029,CST-1368DR,4735,5264,11852,01.103,551
2022-05-30T20:49:19,42.805,6.029,CST-1368DR,4734,5260,11846,01.105,551
2022-05-30T20:52:21,42.805,6.029,CST-1368DR,4734,5263,11851,01.104,551
2022-05-30T20:55:23,42.805,6.029,CST-1368DR,4734,5265,11856,01.102,551
2022-05-30T20:58:24,42.805,6.029,CST-1368DR,4734,5267,11861,01.100,551
2022-05-30T21:01:26,42.805,6.029,CST-1368DR,4734,5260,11846,01.105,551
2022-05-30T21:04:27,42.805,6.029,CST-1368DR,4734,5195,11700,01.155,551
2022-05-30T21:07:29,42.805,6.029,CST-1368DR,4734,5175,11653,01.171,551
2022-05-30T21:10:30,42.805,6.029,CST-1368DR,4734,5259,11843,01.106,551
2022-05-30T21:13:32,42.805,6.029,CST-1368DR,4734,5252,11828,01.111,551
2022-05-30T21:16:34,42.805,6.029,CST-1368DR,4734,5253,11830,01.111,551
2022-05-30T21:19:35,42.805,6.029,CST-1368DR,4733,5073,11427,01.249,551
2022-05-30T21:22:37,42.805,6.029,CST-1368DR,4734,5261,11846,01.105,551
2022-05-30T21:25:38,42.805,6.029,CST-1368DR,4734,5255,11834,01.109,551
2022-05-30T21:28:40,42.805,6.029,CST-1368DR,4734,5258,11841,01.107,551
2022-05-30T21:31:41,42.805,6.029,CST-1368DR,4734,5257,11839,01.108,551
2022-05-30T21:34:43,42.805,6.029,CST-1368DR,4734,5213,11738,01.142,551
2022-05-30T21:37:45,42.805,6.029,CST-1368DR,4734,5257,11838,01.108,551
2022-05-30T21:40:46,42.805,6.029,CST-1368DR,4734,5263,11851,01.104,551
2022-05-30T21:43:48,42.805,6.029,CST-1368DR,4734,5260,11846,01.105,551
2022-05-30T21:46:49,42.805,6.029,CST-1368DR,4734,5257,11839,01.108,551
2022-05-30T21:49:51,42.805,6.029,CST-1368DR,4734,5256,11836,01.109,551
2022-05-30T21:52:53,42.805,6.029,CST-1368DR,4734,5257,11839,01.108,551
2022-05-30T21:55:54,42.805,6.029,CST-1368DR,4734,5255,11834,01.109,551
2022-05-30T21:58:56,42.805,6.029,CST-1368DR,4734,5260,11846,01.105,551
2022-05-30T22:01:57,42.805,6.029,CST-1368DR,4734,5250,11822,01.113,551
2022-05-30T22:04:59,42.805,6.029,CST-1368DR,4734,5258,11841,01.107,551
2022-05-30T22:08:00,42.805,6.029,CST-1368DR,4734,5264,11854,01.103,551
2022-05-30T22:11:02,42.805,6.029,CST-1368DR,4734,5255,11835,01.109,551
2022-05-30T22:14:04,42.805,6.029,CST-1368DR,4734,5257,11838,01.108,551
2022-05-30T22:17:05,42.805,6.029,CST-1368DR,4734,5256,11835,01.109,551
2022-05-30T22:20:07,42.805,6.029,CST-1368DR,4734,5255,11834,01.109,551
2022-05-30T22:23:08,42.805,6.029,CST-1368DR,4734,5251,11826,01.112,551
2022-05-30T22:26:10,42.805,6.029,CST-1368DR,4734,5255,11834,01.109,551
2022-05-30T22:29:12,42.805,6.029,CST-1368DR,4734,5253,11828,01.111,551
2022-05-30T22:32:13,42.805,6.029,CST-1368DR,4734,5257,11839,01.108,551
2022-05-30T22:35:15,42.805,6.029,CST-1368DR,4734,5261,11846,01.105,551
2022-05-30T22:38:16,42.805,6.029,CST-1368DR,4734,5256,11836,01.109,551
2022-05-30T22:41:18,42.805,6.029,CST-1368DR,4734,5254,11831,01.110,551
2022-05-30T22:44:19,42.805,6.029,CST-1368DR,4734,5262,11849,01.104,551
2022-05-30T22:47:21,42.805,6.029,CST-1368DR,4734,5257,11839,01.108,551
2022-05-30T22:50:23,42.805,6.029,CST-1368DR,4734,5261,11847,01.105,551
2022-05-30T22:53:24,42.805,6.029,CST-1368DR,4734,5259,11843,01.106,551
2022-05-30T22:56:26,42.805,6.029,CST-1368DR,4734,5263,11852,01.103,551
2022-05-30T22:59:27,42.805,6.029,CST-1368DR,4734,5258,11841,01.107,551
2022-05-30T23:02:29,42.805,6.029,CST-1368DR,4734,5269,11866,01.098,551
2022-05-30T23:05:30,42.805,6.029,CST-1368DR,4734,5262,11850,01.104,551
2022-05-30T23:08:32,42.805,6.029,CST-1368DR,4733,5261,11849,01.104,551
2022-05-30T23:11:34,42.805,6.029,CST-1368DR,4733,5277,11887,01.091,551
2022-05-30T23:14:35,42.805,6.029,CST-1368DR,4733,5255,11836,01.109,551
2022-05-30T23:17:37,42.805,6.029,CST-1368DR,4733,5257,11842,01.107,551
2022-05-30T23:20:38,42.805,6.029,CST-1368DR,4733,5258,11844,01.106,551
2022-05-30T23:23:40,42.805,6.029,CST-1368DR,4733,5259,11844,01.106,551
2022-05-30T23:26:42,42.805,6.029,CST-1368DR,4733,5257,11842,01.107,551
2022-05-30T23:29:43,42.805,6.029,CST-1368DR,4733,5257,11840,01.107,551
2022-05-30T23:32:45,42.805,6.029,CST-1368DR,4733,5255,11836,01.109,551
2022-05-30T23:35:46,42.805,6.029,CST-1368DR,4733,5254,11834,01.109,551
2022-05-30T23:38:48,42.805,6.029,CST-1368DR,4733,5251,11828,01.111,551
2022-05-30T23:41:49,42.805,6.029,CST-1368DR,4733,5252,11829,01.111,551
2022-05-30T23:44:51,42.805,6.029,CST-1368DR,4732,4987,11235,01.317,551
2022-05-30T23:47:53,42.805,6.029,CST-1368DR,4732,5115,11523,01.216,551
2022-05-30T23:50:54,42.805,6.029,CST-1368DR,4733,5260,11848,01.105,551
2022-05-30T23:53:56,42.805,6.029,CST-1368DR,4733,5257,11840,01.107,551
2022-05-30T23:56:57,42.805,6.029,CST-1368DR,4733,5260,11848,01.105,551
2022-05-30T23:59:59,42.805,6.029,CST-1368DR,4733,5265,11858,01.101,551
